This demonstration page uses our WeatherBlox Daily Observations layout. Learn more.

Left ArrowRight Arrow

Hourly Observations for May 10, 2020

Temp ( °F °C ) Dew Point ( °F °C ) Humidity (%) Winds ( mph kmh ) Pressure ( in mb ) Visibility ( mi km ) Precip ( " mm )
12:53 am 00:53 Clear 68 20 49 9.4 51 51 NNE 5 7 29.80 1009 10 16 0.00 0.00
1:53 am 01:53 Clear 65 18.3 49 9.4 56 56 Calm 29.79 1009 10 16 0.00 0.00
2:53 am 02:53 Clear 61 16.1 51 10.6 70 70 NNE 3 6 29.79 1009 10 16 0.00 0.00
3:53 am 03:53 Clear 60 15.6 50 10 70 70 Calm 29.80 1009 10 16 0.00 0.00
4:53 am 04:53 Clear 58 14.4 50 10 75 75 Calm 29.80 1009 10 16 0.00 0.00
5:53 am 05:53 Clear 56 13.3 50 10 81 81 NNE 3 6 29.80 1009 10 16 0.00 0.00
6:53 am 06:53 Sunny 58 14.4 50 10 75 75 Calm 29.81 1010 10 16 0.00 0.00
7:53 am 07:53 Sunny 62 16.7 52 11.1 70 70 Calm 29.82 1010 10 16 0.00 0.00
8:53 am 08:53 Sunny 67 19.4 48 8.9 51 51 SE 3 6 29.83 1010 10 16 0.00 0.00
9:53 am 09:53 Sunny 72 22.2 49 9.4 44 44 Calm 29.83 1010 10 16 0.00 0.00
10:53 am 10:53 Sunny 75 23.9 47 8.3 37 37 VRB 5 7 29.83 1010 10 16 0.00 0.00
11:53 am 11:53 Sunny 79 26.1 48 8.9 34 34 VRB 3 6 29.82 1010 10 16 0.00 0.00
12:53 pm 12:53 Sunny 82 27.8 47 8.3 29 29 VRB 6 9 29.80 1009 10 16 0.00 0.00
1:53 pm 13:53 Sunny 85 29.4 43 6.1 23 23 VRB 5 7 29.79 1009 10 16 0.00 0.00
2:53 pm 14:53 Sunny 86 30 42 5.6 21 21 S 9 15 29.77 1008 10 16 0.00 0.00
3:53 pm 15:53 Sunny 88 31.1 43 6.1 21 21 SSW 10 17 29.75 1007 10 16 0.00 0.00
4:53 pm 16:53 Sunny 87 30.6 40 4.4 19 19 S 16 26 29.73 1007 10 16 0.00 0.00
5:53 pm 17:53 Sunny 86 30 41 5 20 20 S 10 17 29.72 1007 10 16 0.00 0.00
6:53 pm 18:53 Sunny 83 28.3 46 7.8 27 27 S 12 19 29.72 1007 10 16 0.00 0.00
7:53 pm 19:53 Sunny 81 27.2 37 2.8 21 21 S 14 22 29.74 1007 10 16 0.00 0.00
8:53 pm 20:53 Clear 78 25.6 43 6.1 29 29 S 10 17 29.74 1007 10 16 0.00 0.00
9:53 pm 21:53 Clear 74 23.3 44 6.7 34 34 W 3 6 29.74 1007 10 16 0.00 0.00
10:53 pm 22:53 Clear 71 21.7 45 7.2 39 39 W 7 11 29.76 1008 10 16 0.00 0.00
11:53 pm 23:53 Clear 72 22.2 43 6.1 35 35 SW 10 17 29.77 1008 10 16 0.00 0.00

Powered by AerisWeather